OBJECT A, 65945

Orbit data source: Space-Track

You're viewing an Uncataloged Satellite

Recently launched and/or uncataloged satellites may have evolving metadata. Metadata may include but not limited to: Owner, Maufacturer, Bus, Motor, and Mission.

OBJECT A, 65945 is a satellite owned by CAST (CN) in LEO that was launched on Mon, 13 Oct 2025 UTC via a CHANG ZHENG 2D launch vehicle from the Jiuquan Satellite Launch Center, China (JSC). Unknown objects in Earth's orbit typically refer to objects detected orbiting the Earth but have not yet been identified or cataloged. These objects could be anything from previously untracked satellites, spent rocket stages, debris from satellite collisions, or even natural meteoroids temporarily captured by Earth's gravity.

Loading next visibility...
Identifier
65945, 2025-227A
Orbit
LEO
Country
Flag of CNCN / PRC
Related business
Manufacturer
CAST
Mission
Operational spacecraft
Bus & Motor
SY30, Unknown motor
Mass
~1,000 kg wet, ~1,000 kg dry
Launch date (UTC)
2025-10-13 (1 month ago)
Launch vehicle
CHANG ZHENG 2D
Launch site
Jiuquan Satellite Launch Center, China (JSC)
Object type
Unknown
Shape & HBR
Unknown shape, 1.1 m
Radar Cross Section
RCS unknown

Expand to show TLE details & history
Last TLE update: 2 days ago

TLE from 2 days ago
0 OBJECT A
1 65945U 25227A   25312.78797196  .00015590  00000-0  71008-3 0  9993
2 65945  80.0058  67.0368 0011610 182.6731 177.4436 15.20527276  4013
Epoch: 2025-11-08T18:54Z
TLE epoch observation values (Epoch: 2025-11-08T18:54:40.777Z)
Latitude
-0.00001°
Longitude
95.15433°
Altitude
515.238 km
Speed
7.602 km/s
True Right ascension
04h 28m 08s
True Declination
0° 00' 00"
Sunlit
Object was in full shadow at epoch
Visualization orbit readout
Latitude
Unknown
Longitude
Unknown
Altitude
Unknown
Speed
Unknown
Apparent Right ascension
Unknown
Apparent Declination
Unknown
Sunlit
N/A
Visualization observer readout
Local Sidereal Time
03:58:27
Azimuth
Unknown
Elevation
Unknown
Doppler factor
Unknown
Orbital elements
Apogee altitude
509.331 km
Perigee altitude
493.357 km
Semi-major axis
6,879.481 km
Eccentricity
0.00116
Inclination
80.0058°
RAAN
67.0368°
Arg. of periapsis
182.6731°
True anomaly
177.44953°
Mean anomaly
177.4436°
Eccentric anomaly
177.44656°
Mean motion
3.80373 °/min
Orbital period
94.64 mins
BSTAR
0.00071008
Loading maneuver chart data...
Computing Atmospheric mass density...
Loading historical data...
Loading historical data...
Loading historical data...
Loading historical data...
Loading historical data...
Loading historical data...
Loading historical data...
Other satellites on launch #227 in the year 2025 (2025-10-13 UTC)

Documentation

Showing up to 5 results
|